EXACTVIEW-1 (ADS-1B)

Last updated on Sun Dec 14 2025 00:02:32 GMT+0000 (Coordinated Universal Time)

1 38709U 12039C 25347.30537495 .00000266 00000+0 13385-3 0 9995 2 38709 98.9636 95.7073 0010645 352.5587 7.5432 14.24908543696239
UTC large
Height (km)
Speed (km/s)
/
Latitude / Longitude
Inclination (degrees)
Orbital Period (minutes)
Azimuth
Elevation
Range (km)
Doppler Factor

Next 0 passes for location: London (51.5072 / 0.1276)

Sorry there are no passes over London.